TimeCDT,TemperatureF,Dew PointF,Humidity,Sea Level PressureIn,VisibilityMPH,Wind Direction,Wind SpeedMPH,Gust SpeedMPH,PrecipitationIn,Events,Conditions,WindDirDegrees,DateUTC
12:15 AM,69.8,60.8,73,29.81,10.0,SSE,18.4,25.3,N/A,,Clear,160,2013-09-28 05:15:00
12:35 AM,69.8,60.8,73,29.80,10.0,SSE,17.3,26.5,N/A,,Clear,150,2013-09-28 05:35:00
12:55 AM,69.8,60.8,73,29.80,10.0,SSE,16.1,23.0,N/A,,Clear,160,2013-09-28 05:55:00
1:15 AM,69.8,60.8,73,29.80,10.0,SSE,16.1,25.3,N/A,,Clear,150,2013-09-28 06:15:00
1:35 AM,68.0,60.8,78,29.79,10.0,SSE,17.3,26.5,N/A,,Clear,150,2013-09-28 06:35:00
1:55 AM,68.0,60.8,78,29.78,10.0,SSE,16.1,25.3,N/A,,Clear,160,2013-09-28 06:55:00
2:15 AM,68.0,60.8,78,29.77,10.0,SSE,17.3,27.6,N/A,,Clear,150,2013-09-28 07:15:00
2:35 AM,68.0,60.8,78,29.77,10.0,SSE,15.0,26.5,N/A,,Partly Cloudy,150,2013-09-28 07:35:00
2:55 AM,68.0,60.8,78,29.76,10.0,SSE,17.3,-,N/A,,Mostly Cloudy,150,2013-09-28 07:55:00
3:15 AM,66.2,60.8,83,29.76,10.0,SSE,18.4,24.2,N/A,,Partly Cloudy,160,2013-09-28 08:15:00
3:35 AM,66.2,60.8,83,29.76,10.0,SSE,18.4,-,N/A,,Clear,160,2013-09-28 08:35:00
3:55 AM,66.2,60.8,83,29.75,10.0,SSE,19.6,-,N/A,,Clear,160,2013-09-28 08:55:00
4:15 AM,66.2,60.8,83,29.74,10.0,SSE,17.3,24.2,N/A,,Scattered Clouds,150,2013-09-28 09:15:00
4:35 AM,66.2,60.8,83,29.73,10.0,SSE,16.1,21.9,N/A,,Mostly Cloudy,160,2013-09-28 09:35:00
4:55 AM,68.0,60.8,78,29.73,10.0,SSE,17.3,-,N/A,,Overcast,150,2013-09-28 09:55:00
5:15 AM,68.0,60.8,78,29.72,10.0,SSE,15.0,25.3,N/A,,Mostly Cloudy,150,2013-09-28 10:15:00
5:35 AM,68.0,60.8,78,29.71,10.0,SSE,19.6,28.8,N/A,,Overcast,150,2013-09-28 10:35:00
5:55 AM,68.0,60.8,78,29.70,10.0,SSE,18.4,26.5,N/A,,Mostly Cloudy,150,2013-09-28 10:55:00
6:15 AM,68.0,60.8,78,29.72,10.0,SSE,17.3,25.3,N/A,,Mostly Cloudy,160,2013-09-28 11:15:00
6:35 AM,68.0,62.6,83,29.74,9.0,South,13.8,-,N/A,,Overcast,170,2013-09-28 11:35:00
6:55 AM,66.2,62.6,88,29.73,5.0,South,10.4,16.1,0.06,Rain,Light Rain,170,2013-09-28 11:55:00
7:15 AM,68.0,64.4,88,29.72,10.0,South,16.1,24.2,N/A,,Overcast,170,2013-09-28 12:15:00
7:35 AM,68.0,64.4,88,29.71,10.0,South,18.4,25.3,N/A,,Overcast,170,2013-09-28 12:35:00
7:55 AM,66.2,64.4,94,29.72,9.0,South,16.1,25.3,0.07,,Overcast,180,2013-09-28 12:55:00
8:15 AM,66.2,64.4,94,29.70,9.0,South,16.1,23.0,N/A,,Overcast,170,2013-09-28 13:15:00
8:35 AM,66.2,64.4,94,29.69,10.0,South,19.6,25.3,N/A,Rain,Light Rain,180,2013-09-28 13:35:00
8:55 AM,68.0,64.4,88,29.69,9.0,South,18.4,26.5,N/A,,Overcast,180,2013-09-28 13:55:00
9:15 AM,66.2,64.4,94,29.71,9.0,South,17.3,27.6,N/A,,Overcast,190,2013-09-28 14:15:00
9:35 AM,66.2,64.4,94,29.72,9.0,South,18.4,26.5,N/A,,Overcast,190,2013-09-28 14:35:00
9:55 AM,57.2,55.4,94,29.76,2.5,West,18.4,34.5,0.01,,Light Drizzle,270,2013-09-28 14:55:00
10:15 AM,55.4,55.4,100,29.77,1.5,West,16.1,27.6,N/A,,Light Drizzle,270,2013-09-28 15:15:00
10:35 AM,55.4,55.4,100,29.79,1.0,West,19.6,26.5,N/A,Rain,Light Rain,280,2013-09-28 15:35:00
10:55 AM,55.4,53.6,94,29.81,1.0,West,16.1,24.2,0.04,Rain,Light Rain,280,2013-09-28 15:55:00
11:15 AM,55.4,53.6,94,29.82,1.5,WNW,18.4,-,N/A,,Light Drizzle,290,2013-09-28 16:15:00
11:35 AM,55.4,53.6,94,29.83,4.0,WNW,15.0,23.0,N/A,,Light Drizzle,290,2013-09-28 16:35:00
11:55 AM,55.4,53.6,94,29.84,10.0,WNW,11.5,18.4,0.01,,Overcast,290,2013-09-28 16:55:00
12:15 PM,55.4,53.6,94,29.84,10.0,WNW,10.4,17.3,N/A,,Overcast,300,2013-09-28 17:15:00
12:35 PM,55.4,53.6,94,29.85,9.0,West,12.7,-,N/A,Rain,Light Rain,280,2013-09-28 17:35:00
12:55 PM,57.2,53.6,88,29.86,10.0,WNW,15.0,-,N/A,,Overcast,290,2013-09-28 17:55:00
1:15 PM,57.2,53.6,88,29.87,10.0,WNW,13.8,-,N/A,,Overcast,290,2013-09-28 18:15:00
1:35 PM,57.2,53.6,88,29.86,10.0,West,12.7,18.4,N/A,,Mostly Cloudy,280,2013-09-28 18:35:00
1:55 PM,57.2,53.6,88,29.88,10.0,West,10.4,18.4,N/A,,Mostly Cloudy,270,2013-09-28 18:55:00
2:15 PM,59.0,51.8,77,29.88,10.0,West,16.1,-,N/A,,Overcast,280,2013-09-28 19:15:00
2:35 PM,59.0,51.8,77,29.88,10.0,WNW,16.1,-,N/A,,Overcast,290,2013-09-28 19:35:00
2:55 PM,59.0,50.0,72,29.89,10.0,West,16.1,23.0,N/A,,Overcast,280,2013-09-28 19:55:00
3:15 PM,59.0,50.0,72,29.90,10.0,West,17.3,24.2,N/A,,Overcast,280,2013-09-28 20:15:00
3:35 PM,59.0,48.2,67,29.90,10.0,WNW,11.5,19.6,N/A,,Overcast,300,2013-09-28 20:35:00
3:55 PM,60.8,48.2,63,29.91,10.0,West,12.7,-,N/A,,Overcast,280,2013-09-28 20:55:00
4:15 PM,60.8,48.2,63,29.91,10.0,NW,8.1,17.3,N/A,,Mostly Cloudy,320,2013-09-28 21:15:00
4:35 PM,60.8,46.4,59,29.91,10.0,West,12.7,18.4,N/A,,Mostly Cloudy,280,2013-09-28 21:35:00
4:55 PM,64.4,44.6,49,29.92,10.0,West,18.4,25.3,N/A,,Scattered Clouds,280,2013-09-28 21:55:00
5:15 PM,62.6,44.6,52,29.92,10.0,West,15.0,-,N/A,,Scattered Clouds,260,2013-09-28 22:15:00
5:35 PM,64.4,44.6,49,29.92,10.0,West,12.7,-,N/A,,Clear,270,2013-09-28 22:35:00
5:55 PM,62.6,42.8,48,29.93,10.0,West,12.7,-,N/A,,Clear,270,2013-09-28 22:55:00
6:15 PM,62.6,44.6,52,29.94,10.0,WNW,8.1,-,N/A,,Clear,290,2013-09-28 23:15:00
6:35 PM,60.8,44.6,55,29.94,10.0,West,6.9,-,N/A,,Clear,260,2013-09-28 23:35:00
6:55 PM,57.2,46.4,67,29.95,10.0,West,6.9,-,N/A,,Clear,260,2013-09-28 23:55:00
7:15 PM,53.6,46.4,77,29.95,10.0,West,6.9,-,N/A,,Clear,260,2013-09-29 00:15:00
7:35 PM,53.6,46.4,77,29.96,10.0,West,8.1,-,N/A,,Clear,260,2013-09-29 00:35:00
7:55 PM,51.8,46.4,82,29.97,10.0,West,8.1,-,N/A,,Clear,260,2013-09-29 00:55:00
8:15 PM,51.8,44.6,76,29.98,10.0,West,6.9,-,N/A,,Clear,260,2013-09-29 01:15:00
8:35 PM,50.0,44.6,82,29.98,10.0,West,8.1,-,N/A,,Clear,260,2013-09-29 01:35:00
8:55 PM,50.0,44.6,82,29.99,10.0,West,6.9,-,N/A,,Clear,260,2013-09-29 01:55:00
9:15 PM,50.0,44.6,82,30.00,10.0,West,6.9,-,N/A,,Clear,260,2013-09-29 02:15:00
9:35 PM,48.2,44.6,87,30.00,10.0,WSW,6.9,-,N/A,,Clear,250,2013-09-29 02:35:00
9:55 PM,50.0,44.6,82,30.00,10.0,WSW,5.8,-,N/A,,Clear,240,2013-09-29 02:55:00
10:15 PM,48.2,44.6,87,30.01,10.0,WSW,5.8,-,N/A,,Clear,240,2013-09-29 03:15:00
10:35 PM,48.2,44.6,87,30.01,10.0,SW,5.8,-,N/A,,Clear,230,2013-09-29 03:35:00
10:55 PM,48.2,44.6,87,30.01,10.0,SW,8.1,-,N/A,,Clear,230,2013-09-29 03:55:00
11:15 PM,48.2,42.8,82,30.01,10.0,SW,8.1,-,N/A,,Clear,230,2013-09-29 04:15:00
11:35 PM,48.2,42.8,82,30.01,10.0,SW,6.9,-,N/A,,Clear,220,2013-09-29 04:35:00
11:55 PM,46.4,42.8,87,30.01,10.0,SW,5.8,-,N/A,,Clear,220,2013-09-29 04:55:00